Location: B�rgermoos
(47.6500°N, 9.0667°E)
Time: 05:23:28
(UTC+00:00)

Vanguard 2 Rocket - Pass Details

Date: 13 August 2021
Orbit: 556 x 3323 km, 32.9° (Epoch: 27 September)

Event Time Altitude Azimuth Distance (km) Brightness Sun altitude
Rises 02:42:19 0° 229° (SW) 5,476 - -14.2°
Reaches altitude 10° 02:47:37 10° 215° (SW) 3,905 - -13.6°
Exits shadow 02:49:18 13° 208° (SSW) 3,442 9.3 -13.4°
Maximum altitude 02:53:58 20° 174° (S) 2,508 8.8 -12.8°
Drops below altitude 10° 02:58:31 10° 129° (SE) 2,674 9.5 -12.2°
Sets 03:01:18 0° 111° (ESE) 3,325 10.3 -11.8°
